CW5302 Weather Reports


Display with metric or nautical units.
time (UTC)temp
F
wind
direction
speed
MPH
gust
MPH
rain 1hr
in
rain 24hr
in
rain mn
in
humidity
%
barometer
mb
20260508191337 64 336 0.0 3.0 0.00 0.00 0.00 66 1018.3
20260508190330 63 86 1.0 8.0 0.00 0.00 0.00 66 1018.3
20260508185326 62 254 1.0 5.0 0.00 0.00 0.00 67 1018.5
20260508184338 61 275 1.0 4.0 0.00 0.00 0.00 71 1018.7
20260508183351 61 34 0.0 4.0 0.00 0.00 0.00 69 1018.7
20260508182325 60 61 0.0 5.0 0.00 0.00 0.00 71 1018.7
20260508181341 60 45 0.0 4.0 0.00 0.00 0.00 71 1018.8
20260508180336 58 87 0.0 2.0 0.00 0.00 0.00 75 1018.8
20260508175328 57 315 0.0 5.0 0.00 0.00 0.00 75 1018.7
20260508174320 57 281 0.0 4.0 0.00 0.00 0.00 76 1018.5
20260508173331 57 319 0.0 3.0 0.00 0.00 0.00 79 1018.5
20260508172324 56 347 1.0 4.0 0.00 0.00 0.00 78 1018.4
20260508171336 56 309 0.0 6.0 0.00 0.00 0.00 80 1018.4
20260508170354 56 5 0.0 5.0 0.00 0.00 0.00 80 1018.4
20260508165323 55 305 0.0 2.0 0.00 0.00 0.00 81 1018.3
20260508164354 55 340 0.0 2.0 0.00 0.00 0.00 81 1018.2
20260508163326 55 342 0.0 4.0 0.00 0.00 0.00 83 1018.2
20260508162317 54 337 0.0 3.0 0.00 0.00 0.00 83 1018.2
20260508161335 54 117 0.0 0.0 0.00 0.00 0.00 84 1017.8
20260508160347 54 123 0.0 2.0 0.00 0.00 0.00 84 1017.8
20260508155320 53 111 0.0 0.0 0.00 0.00 0.00 85 1018.0
20260508154333 53 111 0.0 0.0 0.00 0.00 0.00 86 1018.3
20260508153324 53 111 0.0 0.0 0.00 0.00 0.00 87 1018.3
20260508152321 52 111 0.0 0.0 0.00 0.00 0.00 88 1018.2
20260508151333 52 111 0.0 1.0 0.00 0.00 0.00 90 1018.2
20260508150332 51 111 0.0 2.0 0.00 0.00 0.00 92 1018.2
20260508145323 51 110 0.0 0.0 0.00 0.00 0.00 95 1018.1
20260508144352 51 186 0.0 0.0 0.00 0.00 0.00 97 1018.2
20260508143325 51 189 0.0 1.0 0.00 0.00 0.00 98 1018.2
20260508142355 50 321 0.0 0.0 0.00 0.00 0.00 98 1018.2
20260508141325 50 321 0.0 0.0 0.00 0.00 0.00 98 1018.1
20260508140337 50 321 0.0 0.0 0.00 0.00 0.00 99 1018.1
20260508135329 49 321 0.0 0.0 0.00 0.00 0.00 98 1017.8
20260508134320 49 321 0.0 0.0 0.00 0.00 0.00 98 1017.6
20260508133332 49 321 0.0 0.0 0.00 0.00 0.00 98 1017.6
20260508132324 48 321 0.0 0.0 0.00 0.00 0.00 98 1017.3
20260508131321 47 321 0.0 0.0 0.00 0.00 0.00 98 1017.2
20260508130333 47 321 0.0 0.0 0.00 0.00 0.00 97 1017.2
20260508125328 47 321 0.0 0.0 0.00 0.00 0.00 97 1017.1
20260508124326 48 321 0.0 0.0 0.00 0.00 0.00 97 1016.8
20260508123318 48 321 0.0 0.0 0.00 0.00 0.00 98 1016.8
20260508122333 48 321 0.0 0.0 0.00 0.00 0.00 97 1016.7
20260508121324 48 321 0.0 0.0 0.00 0.00 0.00 97 1016.6
20260508120339 48 321 0.0 0.0 0.00 0.00 0.00 97 1016.6
20260508115329 48 321 0.0 0.0 0.00 0.00 0.00 97 1016.6
20260508114324 48 321 0.0 0.0 0.00 0.00 0.00 97 1016.5
20260508113315 48 321 0.0 0.0 0.00 0.00 0.00 97 1016.5
20260508112326 48 321 0.0 0.0 0.00 0.00 0.00 97 1016.2
20260508111316 48 321 0.0 0.0 0.00 0.00 0.00 97 1016.1
20260508110330 48 321 0.0 1.0 0.00 0.00 0.00 97 1016.1
20260508105324 47 321 0.0 0.0 0.00 0.00 0.00 96 1015.9
20260508104319 47 321 0.0 0.0 0.00 0.00 0.00 96 1015.6
20260508103331 47 321 0.0 0.0 0.00 0.00 0.00 96 1015.6
20260508102321 48 321 0.0 0.0 0.00 0.00 0.00 96 1015.6
20260508101354 48 321 0.0 0.0 0.00 0.00 0.00 96 1015.5
20260508100326 48 321 0.0 0.0 0.00 0.00 0.00 95 1015.5
20260508095340 48 321 0.0 0.0 0.00 0.00 0.00 95 1015.3
20260508094350 48 321 0.0 0.0 0.00 0.00 0.00 95 1015.3
20260508093324 49 321 0.0 0.0 0.00 0.00 0.00 94 1015.3
20260508092338 49 321 0.0 0.0 0.00 0.00 0.00 94 1015.1
20260508091330 49 321 0.0 0.0 0.00 0.00 0.00 94 1015.0
20260508090327 50 321 0.0 0.0 0.00 0.00 0.00 94 1015.0
20260508085317 50 321 0.0 0.0 0.00 0.00 0.00 93 1014.9
20260508084330 50 321 0.0 0.0 0.00 0.00 0.00 94 1014.8
20260508083323 51 321 0.0 0.0 0.00 0.00 0.00 93 1014.8
20260508082314 51 321 0.0 0.0 0.00 0.00 0.00 94 1014.6
20260508081330 51 321 0.0 0.0 0.00 0.00 0.00 93 1014.5
20260508080323 51 321 0.0 0.0 0.00 0.00 0.00 93 1014.5
20260508075315 51 321 0.0 0.0 0.00 0.00 0.00 92 1014.5
20260508074334 52 321 0.0 0.0 0.00 0.00 0.00 92 1014.4
20260508073347 52 321 0.0 0.0 0.00 0.00 0.00 90 1014.4
20260508072318 52 321 0.0 0.0 0.00 0.00 0.00 90 1014.1
20260508071330 53 321 0.0 0.0 0.00 0.00 0.00 90 1014.1
20260508070326 54 321 0.0 0.0 0.00 0.00 0.00 90 1014.1
20260508065315 54 321 0.0 0.0 0.00 0.00 0.00 89 1014.1
20260508064330 55 321 0.0 0.0 0.00 0.00 0.00 89 1014.2
20260508063347 55 321 0.0 0.0 0.00 0.00 0.00 88 1014.2
20260508062316 56 321 0.0 0.0 0.00 0.00 0.00 87 1014.2
20260508061331 57 321 0.0 0.0 0.00 0.00 0.00 86 1014.1
20260508060329 57 321 0.0 0.0 0.00 0.00 0.00 86 1014.1
20260508055321 58 321 0.0 0.0 0.00 0.00 0.00 85 1014.1
20260508054334 58 321 0.0 0.0 0.00 0.00 0.00 84 1014.0
20260508053348 59 321 0.0 0.0 0.00 0.00 0.00 83 1014.0
20260508052358 60 321 0.0 0.0 0.00 0.00 0.00 83 1014.0
20260508051350 60 321 0.0 0.0 0.00 0.00 0.00 79 1013.8
20260508050324 61 321 0.0 0.0 0.00 0.00 0.00 74 1013.8
20260508045319 62 321 0.0 0.0 0.00 0.00 0.00 71 1013.5
20260508044350 62 321 0.0 0.0 0.00 0.00 0.00 70 1013.5
20260508043320 63 321 0.0 0.0 0.00 0.00 0.00 69 1013.5
20260508042312 64 321 0.0 0.0 0.00 0.00 0.00 69 1013.0
20260508041331 65 321 0.0 0.0 0.00 0.00 0.00 66 1012.9
20260508040321 66 5 0.0 0.0 0.00 0.00 0.00 64 1012.9
20260508035316 67 5 0.0 0.0 0.00 0.00 0.00 63 1012.5
20260508034324 68 5 0.0 3.0 0.00 0.00 0.00 61 1012.1
20260508033320 68 277 0.0 3.0 0.00 0.00 0.00 60 1012.1
20260508032316 68 355 1.0 6.0 0.00 0.00 0.00 60 1011.9
20260508031330 69 340 0.0 0.0 0.00 0.00 0.00 65 1011.8
20260508030320 70 340 0.0 0.0 0.00 0.00 0.00 63 1011.8
20260508025333 72 340 0.0 0.0 0.00 0.00 0.00 63 1011.7
20260508024325 73 340 0.0 0.0 0.00 0.00 0.00 56 1011.7
20260508023317 73 340 0.0 1.0 0.00 0.00 0.00 53 1011.7
20260508022327 74 311 0.0 3.0 0.00 0.00 0.00 56 1011.6
20260508021338 74 309 0.0 3.0 0.00 0.00 0.00 51 1011.7
20260508020330 75 309 0.0 3.0 0.00 0.00 0.00 49 1011.7
20260508015322 78 307 0.0 1.0 0.00 0.00 0.00 46 1011.9
20260508014333 78 306 0.0 3.0 0.00 0.00 0.00 45 1012.0
20260508013326 77 18 0.0 2.0 0.00 0.00 0.00 48 1012.0
20260508012321 77 336 0.0 4.0 0.00 0.00 0.00 46 1012.0
20260508011333 77 327 3.0 5.0 0.00 0.00 0.00 44 1012.3
20260508010326 78 67 0.0 3.0 0.00 0.00 0.00 46 1012.3
20260508005323 78 55 0.0 4.0 0.00 0.00 0.00 47 1012.3
20260508004341 78 329 1.0 4.0 0.00 0.00 0.00 51 1012.4
20260508003352 77 40 0.0 2.0 0.00 0.00 0.00 49 1012.4
20260508002324 76 36 0.0 3.0 0.00 0.00 0.00 48 1012.5
20260508001321 77 144 0.0 3.0 0.00 0.00 0.00 49 1012.5
20260508000315 77 59 0.0 5.0 0.00 0.00 0.00 52 1012.5
20260507235310 76 347 1.0 5.0 0.00 0.00 0.00 49 1012.5
20260507234349 77 325 3.0 7.0 0.00 0.00 0.00 49 1012.7
20260507233343 76 306 2.0 6.0 0.00 0.00 0.00 48 1012.7
20260507232338 76 5 1.0 6.0 0.00 0.00 0.00 49 1012.9
20260507231349 76 360 0.0 3.0 0.00 0.00 0.00 50 1013.0
20260507230320 76 319 3.0 7.0 0.00 0.00 0.00 49 1013.0
20260507225353 75 331 2.0 6.0 0.00 0.00 0.00 51 1013.3
20260507224343 74 285 3.0 7.0 0.00 0.00 0.00 52 1013.5
20260507223334 73 320 1.0 7.0 0.00 0.00 0.00 54 1013.5
20260507222346 73 289 2.0 7.0 0.00 0.00 0.00 55 1013.7
20260507221337 73 360 3.0 6.0 0.00 0.00 0.00 56 1014.0
20260507220329 72 313 2.0 8.0 0.00 0.00 0.00 56 1014.0
20260507215341 71 329 2.0 5.0 0.00 0.00 0.00 60 1014.1
20260507214333 70 131 1.0 5.0 0.00 0.00 0.00 62 1014.3
20260507213328 69 101 1.0 5.0 0.00 0.00 0.00 64 1014.3
20260507212326 68 184 0.0 3.0 0.00 0.00 0.00 64 1014.5
20260507211326 67 248 0.0 4.0 0.00 0.00 0.00 65 1014.6
20260507210335 67 327 2.0 5.0 0.00 0.00 0.00 65 1014.6
20260507205330 67 292 3.0 7.0 0.00 0.00 0.00 67 1015.0
20260507204343 66 267 0.0 5.0 0.00 0.00 0.00 67 1015.1
20260507203356 65 20 2.0 5.0 0.00 0.00 0.00 68 1015.1
20260507202347 65 325 2.0 7.0 0.00 0.00 0.00 69 1015.4
20260507201315 64 245 2.0 5.0 0.00 0.00 0.00 71 1015.6
20260507200352 63 302 1.0 7.0 0.00 0.00 0.00 72 1015.6
20260507195320 63 210 0.0 6.0 0.00 0.00 0.00 73 1015.8
20260507194329 62 333 2.0 6.0 0.00 0.00 0.00 72 1016.0
20260507193345 61 282 0.0 6.0 0.00 0.00 0.00 72 1016.0
20260507192334 61 317 1.0 6.0 0.00 0.00 0.00 75 1016.1